OneWeb SL0495

operational
NORAD ID: 54115 Int'l Des: 2022-138 Owner: ONEWEBN Country: UK Constellation: oneweb
LEOCIRCULARPOLARONEWEB_TYPE

关于 OneWeb SL0495

正在加载描述...

实时位置

正在加载3D地球...

即将过境

高度历史

Altitude vs Time

uPlot chart will show altitude changes over time

两行轨道根数

1 54115U 22138C 25260.80381126 -.00000214 00000-0 -56759-3 0 9990
2 54115 87.9276 359.1463 0001093 99.1810 260.9447 13.19724835140896
Epoch: Sep 17, 2025 • Age: 16 hours

当前状态

高度 1205.3 km
速度 7.25 km/s
星下点 -48.79°S, 18.71°E
发射日期 Oct 22, 2022
运行时间 2.9 years
类型 internet

技术详情

分类 Payload
质量 148.00 kg
干质量 140.00 kg
总质量 148.00 kg
长度 1.30 m
直径 1.00 m
跨度 5.00 m
形状 Trapezoid+2 pan
制造商 ONEWUS
平台类型 ARROW
阶段状态 In Orbit
所有者/国家 ONEWEBN/UK

大型星座

Loading constellations...